Fayetteville, NC

2:59 PM EDT on August 21, 2017 (GMT -0400)
Fayetteville Regional-Grannis

Weather History for KFAY - October, 2013

Change the Weather History Date:

Friday, October 18, 2013

  Actual Average Record
Temperature  
Mean Temperature 66 °F 63 °F  
Max Temperature 70 °F 74 °F 91 °F (1938)
Min Temperature 62 °F 51 °F 32 °F (1943)
Degree Days  
Heating Degree Days 0 4  
Month to date heating degree days 12 44  
Since 1 July heating degree days 12 53  
Cooling Degree Days 1 2  
Month to date cooling degree days 77 53  
Year to date cooling degree days 1921 1961  
Growing Degree Days 16 (Base 50)    
Moisture  
Dew Point 59 °F    
Average Humidity 77    
Maximum Humidity 93    
Minimum Humidity 60    
Precipitation  
Precipitation 0.26 in 0.09 in 1.53 in (1911)
Month to date precipitation 0.79 2.24  
Year to date precipitation 36.42 38.07  
Sea Level Pressure  
Sea Level Pressure 29.95 in    
Wind  
Wind Speed 5 mph (NNE)    
Max Wind Speed 22 mph    
Max Gust Speed 26 mph    
Visibility 9 miles    
Events Rain    
T = Trace of Precipitation, MM = Missing Value Source: NWS Daily Summary

Daily Weather History Graph

Daily Weather History Graph

Search for Another Location

Airport or City:

Trip Planner

Search our weather history database for the weather conditions in past years. The results will help you decide how hot, cold, wet, or windy it might be!

Date:

Astronomy

Oct. 18, 2013 Rise Set
Actual Time 7:24 AM EDT 6:36 PM EDT
Civil Twilight 6:58 AM EDT 7:02 PM EDT
Nautical Twilight 6:29 AM EDT 7:31 PM EDT
Astronomical Twilight 5:59 AM EDT 8:00 PM EDT
Moon 6:26 PM EDT (10/18) 6:57 AM EDT (10/18)
Length of Visible Light 12h 03m
Length of Day
11h 12m
Full, 100% of the Moon is Illuminated
Oct 18
Full
Oct 18
Full
Oct 26
Last Quarter
Nov 3
New
Nov 10
First Quarter

Hourly Weather History & Observations

Time (EDT) Temp. Dew Point Humidity Pressure Visibility Wind Dir Wind Speed Gust Speed Precip Events Conditions
12:53 AM 69.1 °F 64.9 °F 87% 29.88 in 10.0 mi SW 3.5 mph - N/A   Scattered Clouds
1:53 AM 69.1 °F 64.9 °F 87% 29.88 in 10.0 mi Calm Calm - N/A   Mostly Cloudy
2:53 AM 69.1 °F 66.0 °F 90% 29.89 in 10.0 mi Calm Calm - N/A   Overcast
3:03 AM 69.8 °F 66.2 °F 88% 29.90 in 10.0 mi Calm Calm - N/A   Overcast
3:53 AM 69.1 °F 66.0 °F 90% 29.88 in 10.0 mi SSW 3.5 mph - N/A   Overcast
4:53 AM 69.1 °F 66.0 °F 90% 29.89 in 7.0 mi Calm Calm - 0.00 in   Overcast
5:07 AM 68.0 °F 66.2 °F 94% 29.91 in 1.8 mi Calm Calm - 0.05 in Rain Heavy Rain
5:41 AM 68.0 °F 66.2 °F 94% 29.92 in 3.0 mi West 4.6 mph - 0.25 in Rain Light Rain
5:53 AM 68.0 °F 66.0 °F 93% 29.91 in 6.0 mi WNW 3.5 mph - 0.25 in   Overcast
5:59 AM 68.0 °F 66.2 °F 94% 29.92 in 7.0 mi Calm Calm - N/A   Overcast
6:53 AM 68.0 °F 66.0 °F 93% 29.92 in 4.0 mi North 5.8 mph - N/A   Overcast
7:18 AM 68.0 °F 66.2 °F 94% 29.94 in 6.0 mi North 9.2 mph - N/A   Overcast
7:25 AM 64.4 °F 60.8 °F 88% 29.95 in 9.0 mi North 17.3 mph 26.5 mph N/A   Overcast
7:32 AM 62.6 °F 59.0 °F 88% 29.96 in 10.0 mi North 16.1 mph - 0.01 in Rain Light Rain
7:53 AM 62.1 °F 57.9 °F 86% 29.96 in 10.0 mi North 11.5 mph - 0.01 in   Overcast
8:53 AM 62.1 °F 57.0 °F 84% 29.99 in 10.0 mi NNE 9.2 mph - N/A   Overcast
9:53 AM 62.1 °F 57.0 °F 84% 30.01 in 10.0 mi NE 10.4 mph - N/A   Overcast
10:53 AM 62.1 °F 52.0 °F 70% 30.03 in 10.0 mi NNE 6.9 mph - N/A   Overcast
11:53 AM 63.0 °F 50.0 °F 63% 30.02 in 10.0 mi NNE 10.4 mph - N/A   Overcast
12:53 PM 63.0 °F 48.0 °F 58% 30.01 in 10.0 mi NNE 10.4 mph - N/A   Overcast
1:53 PM 64.0 °F 50.0 °F 60% 29.99 in 10.0 mi NNE 5.8 mph - N/A   Overcast
2:53 PM 64.0 °F 50.0 °F 60% 29.98 in 10.0 mi NNE 8.1 mph - N/A   Overcast
3:53 PM 64.9 °F 51.1 °F 61% 29.96 in 10.0 mi NNE 6.9 mph - N/A   Overcast
4:53 PM 64.9 °F 52.0 °F 63% 29.96 in 10.0 mi NNE 5.8 mph - N/A   Overcast
5:53 PM 64.0 °F 53.1 °F 67% 29.96 in 10.0 mi NNE 4.6 mph - N/A   Overcast
6:53 PM 63.0 °F 55.0 °F 75% 29.97 in 10.0 mi Calm Calm - N/A   Overcast
7:53 PM 63.0 °F 55.9 °F 78% 29.98 in 10.0 mi Calm Calm - N/A   Overcast
8:38 PM 62.6 °F 55.4 °F 77% 29.99 in 10.0 mi Calm Calm - N/A   Overcast
8:53 PM 63.0 °F 55.9 °F 78% 29.97 in 10.0 mi Calm Calm - N/A   Overcast
9:53 PM 63.0 °F 57.0 °F 81% 29.98 in 10.0 mi NNE 3.5 mph - N/A   Overcast
10:53 PM 62.1 °F 57.0 °F 84% 29.97 in 10.0 mi NE 3.5 mph - 0.00 in   Overcast
11:53 PM 62.1 °F 57.9 °F 86% 29.96 in 10.0 mi Calm Calm - N/A   Overcast